Weather History for KI35 - June, 2013

Change the Weather History Date:

Tuesday, June 18, 2013

  Actual Average (KLOZ) Record (KLOZ)
Temperature  
Mean Temperature 68 °F 74 °F  
Max Temperature 73 °F 84 °F 93 °F (2014)
Min Temperature 62 °F 63 °F 48 °F (1999)
Degree Days  
Heating Degree Days 0 0  
Month to date heating degree days 7  
Since 1 June heating degree days 7  
Since 1 July heating degree days 4203  
Cooling Degree Days 2 9  
Month to date cooling degree days 124  
Year to date cooling degree days 238  
Since 1 June cooling degree days 124  
Growing Degree Days 18 (Base 50)    
Moisture  
Dew Point 62 °F    
Average Humidity 84    
Maximum Humidity 100    
Minimum Humidity 64    
Precipitation  
Precipitation 0.00 in 0.14 in 1.88 in (1992)
Month to date precipitation 2.73  
Year to date precipitation 23.26  
Sea Level Pressure  
Sea Level Pressure 29.94 in    
Wind  
Wind Speed 2 mph (NE)    
Max Wind Speed 10 mph    
Max Gust Speed 21 mph    
Visibility 7 miles    
Events      
T = Trace of Precipitation, MM = Missing Value Source: NWS Daily Summary

Daily Weather History Graph

Daily Weather History Graph

Search for Another Location

Airport or City:

Trip Planner

Search our weather history database for the weather conditions in past years. The results will help you decide how hot, cold, wet, or windy it might be!

Date:

Astronomy

Jun. 18, 2013 Rise Set
Actual Time 6:14 AM EDT 8:55 PM EDT
Civil Twilight 5:43 AM EDT 9:26 PM EDT
Nautical Twilight 5:04 AM EDT 10:04 PM EDT
Astronomical Twilight 4:21 AM EDT 10:47 PM EDT
Moon 3:44 PM EDT (6/18) 2:15 AM EDT (6/18)
Length of Visible Light 15h 42m
Length of Day
14h 41m
Waxing Gibbous, 70% of the Moon is Illuminated
Jun 18
Waxing Gibbous
Jun 23
Full
Jun 30
Last Quarter
Jul 8
New
Jul 15
First Quarter

Hourly Weather History & Observations

Time (EDT) Temp. Dew Point Humidity Pressure Visibility Wind Dir Wind Speed Gust Speed Precip Events Conditions
12:15 AM 71.6 °F 59.0 °F 64% 29.97 in 10.0 mi East 3.5 mph - N/A   Overcast
12:35 AM 71.6 °F 59.0 °F 64% 29.96 in 10.0 mi North - - N/A   Overcast
12:55 AM 71.6 °F 59.0 °F 64% 29.95 in 10.0 mi East 3.5 mph - N/A   Overcast
1:15 AM 69.8 °F 59.0 °F 68% 29.94 in 10.0 mi ENE 4.6 mph - N/A   Overcast
1:35 AM 69.8 °F 59.0 °F 68% 29.93 in 10.0 mi ENE 4.6 mph - N/A   Overcast
1:55 AM 69.8 °F 59.0 °F 68% 29.92 in 10.0 mi East 4.6 mph - N/A   Overcast
2:15 AM 69.8 °F 59.0 °F 68% 29.91 in 10.0 mi Calm Calm - N/A   Overcast
2:35 AM 64.4 °F 62.6 °F 94% 29.93 in 4.0 mi Calm Calm - N/A   Overcast
2:55 AM 64.4 °F 62.6 °F 94% 29.92 in 5.0 mi Calm Calm - N/A   Overcast
3:15 AM 64.4 °F 62.6 °F 94% 29.92 in 2.5 mi Calm Calm - N/A   Overcast
3:35 AM 64.4 °F 62.6 °F 94% 29.91 in 1.2 mi Calm Calm - N/A   Overcast
3:55 AM 64.4 °F 62.6 °F 94% 29.91 in 5.0 mi Calm Calm - N/A   Overcast
4:15 AM 64.4 °F 62.6 °F 94% 29.91 in 7.0 mi Calm Calm - N/A   Overcast
4:35 AM 64.4 °F 62.6 °F 94% 29.91 in 5.0 mi East 3.5 mph - N/A   Overcast
4:55 AM 64.4 °F 62.6 °F 94% 29.91 in 1.8 mi Calm Calm - N/A   Overcast
5:15 AM 64.4 °F 62.6 °F 94% 29.92 in 4.0 mi West 6.9 mph - N/A   Overcast
5:35 AM 64.4 °F 62.6 °F 94% 29.92 in 2.5 mi Calm Calm - N/A   Overcast
5:55 AM 64.4 °F 62.6 °F 94% 29.92 in 2.5 mi Calm Calm - N/A   Overcast
6:15 AM 64.4 °F 62.6 °F 94% 29.93 in 4.0 mi Calm Calm - N/A   Overcast
6:35 AM 64.4 °F 62.6 °F 94% 29.93 in 0.8 mi Calm Calm - N/A   Overcast
6:55 AM 64.4 °F 62.6 °F 94% 29.93 in 3.0 mi Calm Calm - N/A   Overcast
7:15 AM 64.4 °F 62.6 °F 94% 29.93 in 0.5 mi Calm Calm - N/A   Overcast
7:35 AM 64.4 °F 62.6 °F 94% 29.93 in 2.5 mi Calm Calm - N/A   Overcast
7:55 AM 64.4 °F 62.6 °F 94% 29.93 in 0.5 mi Calm Calm - N/A   Overcast
8:15 AM 64.4 °F 62.6 °F 94% 29.94 in 2.0 mi Calm Calm - N/A   Overcast
8:35 AM 64.4 °F 62.6 °F 94% 29.93 in 1.8 mi Calm Calm - N/A   Overcast
8:55 AM 64.4 °F 62.6 °F 94% 29.93 in 2.5 mi Calm Calm - N/A   Overcast
9:15 AM 64.4 °F 62.6 °F 94% 29.93 in 2.0 mi Calm Calm - N/A   Overcast
9:35 AM 64.4 °F 62.6 °F 94% 29.93 in 4.0 mi Calm Calm - N/A   Overcast
9:55 AM 64.4 °F 62.6 °F 94% 29.94 in 10.0 mi Calm Calm - N/A   Overcast
10:15 AM 64.4 °F 62.6 °F 94% 29.93 in 3.0 mi Calm Calm - N/A   Overcast
10:35 AM 64.4 °F 62.6 °F 94% 29.93 in 7.0 mi Calm Calm - N/A   Overcast
10:55 AM 64.4 °F 64.4 °F 100% 29.93 in 5.0 mi Calm Calm - N/A   Overcast
11:15 AM 66.2 °F 64.4 °F 94% 29.93 in 2.5 mi Calm Calm - N/A   Overcast
11:35 AM 64.4 °F 64.4 °F 100% 29.93 in 3.0 mi Calm Calm - N/A   Overcast
11:55 AM 66.2 °F 64.4 °F 94% 29.94 in 4.0 mi North 6.9 mph - N/A   Overcast
12:15 PM 64.4 °F 60.8 °F 88% 29.94 in 5.0 mi NE 4.6 mph 18.4 mph N/A   Overcast
12:35 PM 64.4 °F 60.8 °F 88% 29.94 in 5.0 mi North 10.4 mph 20.7 mph N/A   Overcast
12:55 PM 64.4 °F 60.8 °F 88% 29.95 in 7.0 mi NNE 6.9 mph 19.6 mph N/A   Overcast
1:15 PM 64.4 °F 60.8 °F 88% 29.95 in 5.0 mi ENE 4.6 mph 20.7 mph N/A   Overcast
1:35 PM 66.2 °F 60.8 °F 83% 29.95 in 10.0 mi Calm Calm - N/A   Overcast
1:55 PM 66.2 °F 60.8 °F 83% 29.94 in 10.0 mi NE 10.4 mph 19.6 mph N/A   Overcast
2:15 PM 68.0 °F 60.8 °F 78% 29.94 in 10.0 mi East 5.8 mph - N/A   Overcast
2:35 PM 69.8 °F 59.0 °F 68% 29.94 in 10.0 mi NE 4.6 mph 18.4 mph N/A   Mostly Cloudy
2:55 PM 69.8 °F 60.8 °F 73% 29.94 in 10.0 mi ENE 4.6 mph - N/A   Mostly Cloudy
3:15 PM 69.8 °F 60.8 °F 73% 29.94 in 10.0 mi East 3.5 mph - N/A   Scattered Clouds
3:35 PM 71.6 °F 60.8 °F 69% 29.94 in 10.0 mi ENE 3.5 mph - N/A   Scattered Clouds
3:55 PM 71.6 °F 60.8 °F 69% 29.94 in 10.0 mi ESE 4.6 mph - N/A   Mostly Cloudy
4:15 PM 71.6 °F 60.8 °F 69% 29.94 in 10.0 mi Calm Calm - N/A   Overcast
4:35 PM 71.6 °F 60.8 °F 69% 29.94 in 10.0 mi North - - N/A   Overcast
4:55 PM 71.6 °F 60.8 °F 69% 29.94 in 10.0 mi Calm Calm - N/A   Overcast
5:15 PM 71.6 °F 59.0 °F 64% 29.93 in 10.0 mi NE 5.8 mph - N/A   Overcast
5:35 PM 71.6 °F 59.0 °F 64% 29.94 in 10.0 mi East 3.5 mph - N/A   Mostly Cloudy
5:55 PM 71.6 °F 60.8 °F 69% 29.93 in 10.0 mi North 5.8 mph - N/A   Overcast
6:15 PM 71.6 °F 60.8 °F 69% 29.92 in 10.0 mi NE 4.6 mph - N/A   Overcast
6:35 PM 71.6 °F 60.8 °F 69% 29.92 in 10.0 mi ENE 3.5 mph - N/A   Mostly Cloudy
6:55 PM 73.4 °F 60.8 °F 65% 29.91 in 10.0 mi North - - N/A   Overcast
7:15 PM 71.6 °F 59.0 °F 64% 29.92 in 10.0 mi North 5.8 mph - N/A   Scattered Clouds
7:35 PM 71.6 °F 60.8 °F 69% 29.92 in 10.0 mi Calm Calm - N/A   Clear
7:55 PM 69.8 °F 62.6 °F 78% 29.93 in 10.0 mi North - - N/A   Clear
8:15 PM 69.8 °F 62.6 °F 78% 29.94 in 10.0 mi Calm Calm - N/A   Scattered Clouds
8:35 PM 68.0 °F 62.6 °F 83% 29.95 in 10.0 mi North 4.6 mph - N/A   Scattered Clouds
8:55 PM 68.0 °F 62.6 °F 83% 29.96 in 10.0 mi Calm Calm - N/A   Scattered Clouds
9:15 PM 66.2 °F 62.6 °F 88% 29.97 in 10.0 mi Calm Calm - N/A   Mostly Cloudy
9:35 PM 66.2 °F 62.6 °F 88% 29.97 in 10.0 mi Calm Calm - N/A   Scattered Clouds
9:55 PM 64.4 °F 62.6 °F 94% 29.98 in 7.0 mi Calm Calm - N/A   Clear
10:15 PM 64.4 °F 62.6 °F 94% 30.00 in 7.0 mi Calm Calm - N/A   Clear
10:35 PM 64.4 °F 62.6 °F 94% 30.01 in 10.0 mi ENE 3.5 mph - N/A   Clear
10:55 PM 62.6 °F 62.6 °F 100% 30.02 in 5.0 mi Calm Calm - N/A   Clear
11:15 PM 62.6 °F 60.8 °F 94% 30.02 in 7.0 mi Calm Calm - N/A   Clear
11:35 PM 62.6 °F 60.8 °F 94% 30.03 in 4.0 mi Calm Calm - N/A   Scattered Clouds
11:55 PM 62.6 °F 60.8 °F 94% 30.02 in 0.5 mi Calm Calm - N/A   Overcast